Location: ????????
(55.1591°N, 39.1782°E)
Time: 19:30:31
(UTC+00:00)

MSX - Pass Details

Date: 14 April 2024
Orbit: 894 x 905 km, 99.0° (Epoch: 18 May)

Event Time Altitude Azimuth Distance (km) Brightness Sun altitude
Rises 00:19:12 0° 15° (NNE) 3,547 8.0 -15.7°
Reaches altitude 10° 00:21:40 10° 11° (N) 2,601 7.1 -15.4°
Maximum altitude 00:27:16 53° 296° (WNW) 1,108 4.2 -14.8°
Enters shadow 00:30:59 21° 228° (SW) 1,915 4.9 -14.5°
